SAPPHIRE

Last updated on Sat Jun 27 2026 00:03:47 GMT+0000 (Coordinated Universal Time)

1 39088U 13009C 26177.71280078 .00000097 00000+0 48715-4 0 9991 2 39088 98.4264 356.9424 0010453 215.5964 144.4526 14.35242984697944
UTC large
Height (km)
Speed (km/s)
/
Latitude / Longitude
Inclination (degrees)
Orbital Period (minutes)
Azimuth
Elevation
Range (km)
Doppler Factor

Next 0 passes for location: London (51.5072 / 0.1276)

No passes found over London.
SAPPHIRE